Regional Weather Roundup
Issued by NWS

Home | Current Version | Previous Version | Graphics & Text | Print | Product List | Glossary On
Versions: 1 2 3 4 5 6 7 8 9 10 11 12 13 14 15 16 17 18 19 20 21 22 23 24 25 26 27 28 29 30 31 32 33 34 35 36 37 38 39 40 41 42 43 44 45 46 47 48 49 50
000
ASUS43 KTOP 231708
RWRKS

WEATHER ROUNDUP FOR KANSAS
NATIONAL WEATHER SERVICE GOODLAND KS
1200 PM CDT TUE SEP 23 2014

NOTE:  "FAIR" INDICATES FEW OR NO CLOUDS BELOW 12,000 FEET WITH NO
SIGNIFICANT WEATHER AND/OR OBSTRUCTIONS TO VISIBILITY.

KSZ001>006-013>018-027>032-041>047-231800-
NORTHWEST KANSAS

CITY           SKY/WX    TMP DP  RH WIND       PRES   REMARKS
GOODLAND       MOSUNNY   73  61  65 S5        30.07F
HILL CITY      CLOUDY    70  56  61 S14       30.05F
RUSSELL        CLOUDY    64  54  69 S22G28    30.06F
$$

KSZ061>065-074>080-084>089-231800-
SOUTHWEST KANSAS

CITY           SKY/WX    TMP DP  RH WIND       PRES   REMARKS
DODGE CITY     SUNNY     78  51  38 S22G38    30.07F
ELKHART          N/A     79  59  50 SW17        N/A
GARDEN CITY    MOSUNNY   79  61  53 SW17G33   30.05F
GREAT BEND     CLOUDY    66  54  63 S17G25    30.09F
LIBERAL        SUNNY     82  57  42 SW28G35   30.09F
PRATT          PTSUNNY   70  48  46 S20G25    30.12F
$$

KSZ066>073-081>083-090>101-231800-
SOUTHEAST KANSAS

CITY           SKY/WX    TMP DP  RH WIND       PRES   REMARKS
CHANUTE        MOSUNNY   72  56  57 S14G22    30.23F
COFFEYVILLE    SUNNY     72  54  53 S14       30.24F
HUTCHINSON     MOSUNNY   77  52  41 S21G30    30.13F
MEDICINE LODGE   N/A     74  52  46 S10       30.12F
NEWTON         MOSUNNY   73  52  46 S21G28    30.17F
PARSONS        SUNNY     73  56  54 S13G20    30.24F
WICHITA INTL   PTSUNNY   78  51  38 S21G33    30.15F
WICHITA JABRA  MOSUNNY   75  52  44 S20       30.16F
WICHITA MCCONL SUNNY     75  51  43 S17G25    30.17F
WINFIELD       LGT RAIN  74  54  49 S17       30.20F
$$

KSZ007>012-019>026-033>040-048>060-102>105-231800-
NORTHEAST KANSAS

CITY           SKY/WX    TMP DP  RH WIND       PRES   REMARKS
CONCORDIA      HVY RAIN  58  57  97 SE9       30.13F FOG
EMPORIA        PTSUNNY   71  56  58 S16       30.19F
LAWRENCE       CLOUDY    70  55  59 SE15G23   30.20F
MANHATTAN      CLOUDY    66  58  75 S6        30.16F
MARYSVILLE     CLOUDY    64  55  72 S12       30.17S THUNDER
OLATHE IND     CLOUDY    68  55  63 S15       30.22F
OLATHE EXE     CLOUDY    69  55  60 S13       30.22F
SALINA         CLOUDY    68  58  70 S21       30.12F
TOPEKA BILLARD CLOUDY    70  57  63 S12       30.19F
TOPEKA FORBES  CLOUDY    70  55  59 SE16      30.19F
$$


USA.gov is the U.S. government's official web portal to all federal, state and local government web resources and services.